Lompoc, CA

3:25 PM PST on January 23, 2017 (GMT -0800)
Vandenberg Air Force Base

Weather History for KVBG - December, 2012

Change the Weather History Date:

Monday, December 3, 2012

  Actual Average Record
Temperature  
Mean Temperature 54 °F -  
Max Temperature 61 °F 60 °F 69 °F (2003)
Min Temperature 46 °F 44 °F 36 °F (2011)
Degree Days  
Heating Degree Days 12    
Growing Degree Days 4 (Base 50)    
Moisture  
Dew Point 50 °F    
Average Humidity 90    
Maximum Humidity 100    
Minimum Humidity 72    
Precipitation  
Precipitation 0.00 in - - ()
Sea Level Pressure  
Sea Level Pressure 30.14 in    
Wind  
Wind Speed 4 mph (North)    
Max Wind Speed 9 mph    
Max Gust Speed -    
Visibility 8 miles    
Events      
Averages and records for this station are not official NWS values.
T = Trace of Precipitation, MM = Missing Value Source: NWS Daily Summary

Daily Weather History Graph

Daily Weather History Graph

Search for Another Location

Airport or City:

Trip Planner

Search our weather history database for the weather conditions in past years. The results will help you decide how hot, cold, wet, or windy it might be!

Date:

Astronomy

Dec. 03, 2012 Rise Set
Actual Time 6:53 AM PST 4:51 PM PST
Civil Twilight 6:25 AM PST 5:18 PM PST
Nautical Twilight 5:54 AM PST 5:50 PM PST
Astronomical Twilight 5:24 AM PST 6:20 PM PST
Moon 9:36 PM PST (12/3) 10:25 AM PST (12/3)
Length of Visible Light 10h 52m
Length of Day
9h 57m
Waning Gibbous, 77% of the Moon is Illuminated
Dec 3
Waning Gibbous
Dec 6
Last Quarter
Dec 13
New
Dec 19
First Quarter
Dec 28
Full

Hourly Weather History & Observations

Time (PST) Temp. Windchill Dew Point Humidity Pressure Visibility Wind Dir Wind Speed Gust Speed Precip Events Conditions
12:23 AM 57.2 °F - 55.4 °F 94% 30.11 in 8.0 mi NNW 5.8 mph - N/A   Overcast
12:35 AM 57.2 °F - 55.4 °F 94% 30.12 in 8.0 mi NNW 5.8 mph - N/A   Overcast
12:55 AM 55.9 °F - 55.0 °F 97% 30.08 in 9.0 mi NNW 4.6 mph - N/A   Overcast
1:55 AM 55.0 °F - 53.1 °F 93% 30.09 in 10.0 mi NW 5.8 mph - N/A   Mostly Cloudy
2:07 AM 53.6 °F - 51.8 °F 94% 30.12 in 10.0 mi NW 6.9 mph - N/A   Scattered Clouds
2:42 AM 53.6 °F - 51.8 °F 94% 30.12 in 10.0 mi NNW 6.9 mph - N/A   Mostly Cloudy
2:55 AM 54.0 °F - 52.0 °F 93% 30.10 in 10.0 mi NW 5.8 mph - N/A   Mostly Cloudy
3:55 AM 54.0 °F - 52.0 °F 93% 30.10 in 10.0 mi NNW 3.5 mph - N/A   Mostly Cloudy
4:27 AM 53.6 °F - 51.8 °F 94% 30.13 in 10.0 mi Calm Calm - N/A   Scattered Clouds
4:55 AM 50.0 °F - 48.9 °F 96% 30.11 in 9.0 mi Calm Calm - N/A   Clear
5:27 AM 48.2 °F - 46.4 °F 93% 30.13 in 9.0 mi ESE 3.5 mph - N/A   Partly Cloudy
5:55 AM 48.0 °F - 46.9 °F 96% 30.11 in 2.5 mi Calm Calm - N/A   Mostly Cloudy
5:59 AM 48.2 °F - 46.4 °F 93% 30.14 in 1.8 mi Calm Calm - N/A   Mostly Cloudy
6:05 AM 46.4 °F 45.2 °F 46.4 °F 100% 30.14 in 1.5 mi SSE 3.5 mph - N/A   Mostly Cloudy
6:08 AM 48.2 °F - 46.4 °F 93% 30.15 in 1.0 mi Calm Calm - N/A   Mist
6:19 AM 48.2 °F - 46.4 °F 93% 30.15 in 0.8 mi Calm Calm - N/A   Mist
6:30 AM 48.2 °F - 46.4 °F 93% 30.15 in 5.0 mi SE 3.5 mph - N/A   Mostly Cloudy
6:55 AM 48.0 °F - 46.9 °F 96% 30.13 in 5.0 mi SE 3.5 mph - N/A   Mostly Cloudy
7:55 AM 52.0 °F - 51.1 °F 97% 30.15 in 6.0 mi ENE 3.5 mph - N/A   Mostly Cloudy
8:55 AM 57.0 °F - 53.1 °F 87% 30.17 in 7.0 mi ESE 3.5 mph - N/A   Mostly Cloudy
9:13 AM 55.4 °F - 53.6 °F 94% 30.19 in 7.0 mi Calm Calm - N/A   Mostly Cloudy
9:55 AM 57.9 °F - 52.0 °F 81% 30.19 in 10.0 mi NNE 3.5 mph - N/A   Mostly Cloudy
10:55 AM 59.0 °F - 50.0 °F 72% 30.18 in 10.0 mi NNW 3.5 mph - N/A   Mostly Cloudy
11:55 AM 59.0 °F - 51.1 °F 75% 30.16 in 10.0 mi WNW 4.6 mph - N/A   Mostly Cloudy
12:55 PM 61.0 °F - 52.0 °F 72% 30.14 in 10.0 mi WNW 5.8 mph - N/A   Mostly Cloudy
1:55 PM 61.0 °F - 52.0 °F 72% 30.14 in 10.0 mi West 9.2 mph - N/A   Mostly Cloudy
2:55 PM 59.0 °F - 51.1 °F 75% 30.13 in 10.0 mi Variable 4.6 mph - N/A   Mostly Cloudy
3:55 PM 57.9 °F - 50.0 °F 75% 30.14 in 10.0 mi NW 8.1 mph - N/A   Overcast
4:55 PM 54.0 °F - 50.0 °F 86% 30.15 in 10.0 mi NW 5.8 mph - N/A   Mostly Cloudy
5:55 PM 51.1 °F - 48.0 °F 89% 30.16 in 10.0 mi Calm Calm - N/A   Clear
6:55 PM 50.0 °F - 46.9 °F 89% 30.16 in 10.0 mi Calm Calm - N/A   Clear
7:55 PM 50.0 °F - 46.9 °F 89% 30.16 in 10.0 mi Calm Calm - N/A   Clear
8:55 PM 50.0 °F - 48.0 °F 93% 30.17 in 10.0 mi SE 4.6 mph - N/A   Clear
9:55 PM 50.0 °F - 48.0 °F 93% 30.17 in 10.0 mi ESE 6.9 mph - N/A   Clear
10:55 PM 48.9 °F - 46.9 °F 93% 30.17 in 10.0 mi East 5.8 mph - N/A   Clear
11:55 PM 50.0 °F - 48.0 °F 93% 30.15 in 10.0 mi ESE 9.2 mph - N/A   Clear